PEV14T LOWS-LOWW

Flight info

Callsign PEV14T
Flight time 0h 42m
Altitude 25000
Route NEMAL DCT MASUR MASUR3W
Aircraft E170/M-SDE3GILORVW/S

Departure

Time 2026-05-01 11:48
Airport Salzburg Airport (LOWS)

Arrival

Time 2026-05-01 12:30
Airport Vienna International Airport (LOWW)
Time Latitude Longitude Altitude Speed Heading
2026-05-01 11:23 47.79230 13.00084 1420 ft 0 kts 102°
2026-05-01 11:40 47.79233 13.00069 1420 ft 4 kts 102°
2026-05-01 11:40 47.79239 13.00030 1420 ft 4 kts 104°
2026-05-01 11:40 47.79245 12.99998 1420 ft 4 kts 108°
2026-05-01 11:41 47.79258 12.99965 1420 ft 4 kts 142°
2026-05-01 11:41 47.79270 12.99955 1420 ft 2 kts 159°
2026-05-01 11:44 47.79230 12.99980 1420 ft 8 kts 156°
2026-05-01 11:44 47.79168 13.00020 1420 ft 11 kts 156°
2026-05-01 11:44 47.79088 13.00072 1419 ft 14 kts 156°
2026-05-01 11:44 47.78992 13.00134 1419 ft 15 kts 155°
2026-05-01 11:45 47.78956 13.00269 1419 ft 16 kts 92°
2026-05-01 11:45 47.78896 13.00403 1417 ft 18 kts 157°
2026-05-01 11:45 47.78774 13.00479 1418 ft 20 kts 156°
2026-05-01 11:45 47.78639 13.00565 1419 ft 22 kts 158°
2026-05-01 11:46 47.78496 13.00656 1419 ft 24 kts 156°
2026-05-01 11:46 47.78339 13.00753 1419 ft 25 kts 159°
2026-05-01 11:46 47.78221 13.00840 1418 ft 18 kts 143°
2026-05-01 11:46 47.78176 13.00935 1416 ft 6 kts 82°
2026-05-01 11:47 47.78191 13.01020 1416 ft 10 kts 63°
2026-05-01 11:47 47.78247 13.01072 1415 ft 10 kts 357°
2026-05-01 11:47 47.78317 13.01038 1415 ft 11 kts 336°
2026-05-01 11:47 47.78398 13.00986 1414 ft 14 kts 337°
2026-05-01 11:48 47.78580 13.00870 1419 ft 65 kts 337°
2026-05-01 11:48 47.79274 13.00463 1435 ft 143 kts 340°
2026-05-01 11:48 47.80281 12.99789 2125 ft 169 kts 336°
2026-05-01 11:48 47.81317 12.98956 3373 ft 170 kts 331°
2026-05-01 11:49 47.82321 12.98008 4520 ft 180 kts 330°
2026-05-01 11:49 47.83549 12.97014 5077 ft 221 kts 343°
2026-05-01 11:49 47.85042 12.96576 6295 ft 222 kts
2026-05-01 11:49 47.86510 12.97329 7223 ft 230 kts 38°
2026-05-01 11:50 47.87617 12.99032 7261 ft 230 kts 62°
2026-05-01 11:50 47.88277 13.01170 7198 ft 224 kts 69°
2026-05-01 11:50 47.88964 13.03240 6969 ft 224 kts 63°
2026-05-01 11:50 47.89847 13.05203 7116 ft 236 kts 56°
2026-05-01 11:51 47.90926 13.07146 7905 ft 247 kts 52°
2026-05-01 11:51 47.91977 13.09219 8722 ft 256 kts 56°
2026-05-01 11:51 47.92923 13.11461 9567 ft 263 kts 68°
2026-05-01 11:51 47.93267 13.14158 10433 ft 274 kts 85°
2026-05-01 11:52 47.93287 13.17111 10966 ft 296 kts 90°
2026-05-01 11:52 47.93188 13.20271 11503 ft 315 kts 91°
2026-05-01 11:52 47.93048 13.23610 12175 ft 328 kts 91°
2026-05-01 11:52 47.92966 13.25434 12696 ft 331 kts 91°
2026-05-01 11:53 47.92832 13.28334 13503 ft 336 kts 91°
2026-05-01 11:53 47.92659 13.31819 14576 ft 339 kts 91°
2026-05-01 11:53 47.92493 13.35335 15629 ft 341 kts 91°
2026-05-01 11:53 47.92296 13.38833 16586 ft 345 kts 92°
2026-05-01 11:54 47.92096 13.42426 17464 ft 349 kts 91°
2026-05-01 11:54 47.91950 13.46057 18336 ft 353 kts 90°
2026-05-01 11:54 47.92008 13.49708 19080 ft 353 kts 77°
2026-05-01 11:54 47.92800 13.53179 19506 ft 355 kts 65°
2026-05-01 11:55 47.93844 13.56549 19431 ft 357 kts 63°
2026-05-01 11:55 47.94919 13.59859 19376 ft 353 kts 63°
2026-05-01 11:55 47.95987 13.63157 19388 ft 353 kts 63°
2026-05-01 11:55 47.97030 13.66410 19389 ft 352 kts 63°
2026-05-01 11:56 47.98093 13.69707 19419 ft 353 kts 63°
2026-05-01 11:56 47.99141 13.72980 20287 ft 348 kts 63°
2026-05-01 11:56 48.00173 13.76268 21062 ft 351 kts 63°
2026-05-01 11:56 48.01220 13.79594 21718 ft 356 kts 63°
2026-05-01 11:57 48.02283 13.82960 22341 ft 361 kts 63°
2026-05-01 11:57 48.03363 13.86379 22967 ft 366 kts 63°
2026-05-01 11:57 48.04454 13.89833 23580 ft 370 kts 63°
2026-05-01 11:57 48.05560 13.93336 24139 ft 375 kts 63°
2026-05-01 11:58 48.06677 13.96878 24655 ft 378 kts 63°
2026-05-01 11:58 48.07784 14.00389 25157 ft 380 kts 63°
2026-05-01 11:58 48.10047 14.07557 25454 ft 379 kts 63°
2026-05-01 11:59 48.11175 14.11113 25433 ft 378 kts 63°
2026-05-01 11:59 48.12301 14.14665 25426 ft 378 kts 63°
2026-05-01 11:59 48.13425 14.18223 25424 ft 378 kts 63°
2026-05-01 12:00 48.15660 14.25311 25390 ft 373 kts 63°
2026-05-01 12:00 48.16754 14.28785 25409 ft 375 kts 63°
2026-05-01 12:00 48.18969 14.35848 25403 ft 375 kts 63°
2026-05-01 12:01 48.20078 14.39388 25397 ft 376 kts 63°
2026-05-01 12:01 48.21188 14.42937 25399 ft 376 kts 63°
2026-05-01 12:01 48.22295 14.46481 25403 ft 375 kts 63°
2026-05-01 12:01 48.23401 14.50027 25402 ft 375 kts 63°
2026-05-01 12:02 48.24505 14.53573 25400 ft 376 kts 63°
2026-05-01 12:02 48.25609 14.57124 25402 ft 376 kts 63°
2026-05-01 12:02 48.26698 14.60630 25398 ft 376 kts 63°
2026-05-01 12:02 48.27802 14.64193 25403 ft 376 kts 63°
2026-05-01 12:03 48.28905 14.67751 25399 ft 376 kts 63°
2026-05-01 12:03 48.30004 14.71306 25398 ft 375 kts 63°
2026-05-01 12:03 48.31102 14.74862 25429 ft 375 kts 63°
2026-05-01 12:03 48.32184 14.78375 25380 ft 362 kts 63°
2026-05-01 12:04 48.33213 14.81731 25020 ft 347 kts 63°
2026-05-01 12:04 48.34205 14.84979 24588 ft 337 kts 63°
2026-05-01 12:04 48.35181 14.88145 24099 ft 330 kts 63°
2026-05-01 12:04 48.36130 14.91198 23486 ft 326 kts 63°
2026-05-01 12:05 48.37078 14.94272 22843 ft 322 kts 63°
2026-05-01 12:05 48.38937 15.00347 21465 ft 319 kts 63°
2026-05-01 12:05 48.39864 15.03384 20720 ft 320 kts 63°
2026-05-01 12:06 48.40799 15.06437 19901 ft 323 kts 63°
2026-05-01 12:06 48.41743 15.09523 19078 ft 326 kts 64°
2026-05-01 12:06 48.42689 15.12648 18138 ft 330 kts 64°
2026-05-01 12:06 48.43635 15.15774 17102 ft 335 kts 64°
2026-05-01 12:07 48.44606 15.18989 16057 ft 339 kts 64°
2026-05-01 12:07 48.45585 15.22234 15116 ft 340 kts 64°
2026-05-01 12:07 48.46559 15.25477 14202 ft 340 kts 64°
2026-05-01 12:07 48.47520 15.28680 13660 ft 331 kts 64°
2026-05-01 12:08 48.48462 15.31824 13120 ft 331 kts 64°
2026-05-01 12:08 48.49411 15.34986 12570 ft 329 kts 64°
2026-05-01 12:08 48.50335 15.38072 12044 ft 318 kts 64°
2026-05-01 12:08 48.51223 15.41051 11608 ft 306 kts 64°
2026-05-01 12:09 48.51911 15.43975 11555 ft 287 kts 76°
2026-05-01 12:09 48.51973 15.46857 11503 ft 273 kts 90°
2026-05-01 12:09 48.51815 15.49618 11448 ft 257 kts 91°
2026-05-01 12:09 48.51653 15.52246 11267 ft 252 kts 91°
2026-05-01 12:10 48.51485 15.54935 11033 ft 263 kts 91°
2026-05-01 12:10 48.51124 15.60556 10535 ft 272 kts 92°
2026-05-01 12:10 48.50938 15.63393 10288 ft 271 kts 92°
2026-05-01 12:11 48.50337 15.68952 9728 ft 278 kts 113°
2026-05-01 12:11 48.49054 15.71149 9504 ft 283 kts 136°
2026-05-01 12:11 48.47534 15.73041 9271 ft 284 kts 133°
2026-05-01 12:12 48.46173 15.75181 8971 ft 281 kts 124°
2026-05-01 12:12 48.45135 15.77632 8706 ft 276 kts 113°
2026-05-01 12:12 48.44372 15.80263 8459 ft 273 kts 107°
2026-05-01 12:12 48.43741 15.82956 8207 ft 272 kts 104°
2026-05-01 12:13 48.43164 15.85663 7954 ft 272 kts 104°
2026-05-01 12:13 48.42606 15.88380 7707 ft 272 kts 104°
2026-05-01 12:13 48.42054 15.91096 7454 ft 271 kts 104°
2026-05-01 12:13 48.41514 15.93769 7210 ft 270 kts 104°
2026-05-01 12:14 48.40963 15.96479 6962 ft 270 kts 104°
2026-05-01 12:14 48.40415 15.99177 6726 ft 267 kts 104°
2026-05-01 12:14 48.39881 16.01827 6459 ft 263 kts 105°
2026-05-01 12:14 48.39349 16.04440 6347 ft 258 kts 105°
2026-05-01 12:15 48.38827 16.07038 6371 ft 260 kts 104°
2026-05-01 12:15 48.38302 16.09658 6392 ft 263 kts 104°
2026-05-01 12:15 48.37779 16.12262 6398 ft 264 kts 104°
2026-05-01 12:15 48.37243 16.14917 6382 ft 265 kts 104°
2026-05-01 12:16 48.36704 16.17573 6381 ft 266 kts 104°
2026-05-01 12:16 48.36165 16.20240 6382 ft 267 kts 104°
2026-05-01 12:16 48.35627 16.22898 6377 ft 265 kts 104°
2026-05-01 12:16 48.35089 16.25551 6380 ft 266 kts 104°
2026-05-01 12:17 48.34551 16.28216 6371 ft 267 kts 104°
2026-05-01 12:17 48.34009 16.30875 6370 ft 266 kts 104°
2026-05-01 12:17 48.33475 16.33495 6376 ft 266 kts 104°
2026-05-01 12:17 48.32932 16.36153 6375 ft 266 kts 104°
2026-05-01 12:18 48.32387 16.38815 6371 ft 267 kts 104°
2026-05-01 12:18 48.31844 16.41473 6383 ft 266 kts 104°
2026-05-01 12:18 48.31301 16.44132 6378 ft 266 kts 104°
2026-05-01 12:18 48.30760 16.46775 6374 ft 261 kts 104°
2026-05-01 12:19 48.30219 16.49414 6413 ft 268 kts 104°
2026-05-01 12:19 48.29666 16.52105 6265 ft 271 kts 104°
2026-05-01 12:19 48.29108 16.54801 5952 ft 270 kts 104°
2026-05-01 12:19 48.28562 16.57435 5674 ft 267 kts 104°
2026-05-01 12:20 48.28010 16.60081 5426 ft 265 kts 104°
2026-05-01 12:20 48.27212 16.62564 5153 ft 270 kts 126°
2026-05-01 12:20 48.25697 16.64227 4933 ft 275 kts 155°
2026-05-01 12:20 48.23902 16.65146 4982 ft 273 kts 160°
2026-05-01 12:21 48.22093 16.66066 4998 ft 276 kts 159°
2026-05-01 12:21 48.20246 16.67021 4512 ft 287 kts 159°
2026-05-01 12:21 48.18437 16.67979 4659 ft 263 kts 159°
2026-05-01 12:21 48.16766 16.68839 4758 ft 246 kts 159°
2026-05-01 12:22 48.15200 16.69627 4804 ft 237 kts 159°
2026-05-01 12:22 48.13641 16.70404 4931 ft 236 kts 159°
2026-05-01 12:22 48.12081 16.71176 5105 ft 241 kts 159°
2026-05-01 12:22 48.10482 16.71980 5147 ft 243 kts 159°
2026-05-01 12:23 48.08869 16.72761 5147 ft 244 kts 160°
2026-05-01 12:23 48.07235 16.73537 4991 ft 248 kts 160°
2026-05-01 12:23 48.05611 16.74297 4973 ft 240 kts 160°
2026-05-01 12:23 48.04020 16.75036 4996 ft 241 kts 160°
2026-05-01 12:24 48.02411 16.75785 4995 ft 243 kts 160°
2026-05-01 12:24 48.00821 16.76526 4992 ft 244 kts 160°
2026-05-01 12:24 47.99204 16.77271 4989 ft 243 kts 160°
2026-05-01 12:24 47.97545 16.77603 4985 ft 244 kts 187°
2026-05-01 12:25 47.96025 16.76577 5042 ft 244 kts 221°
2026-05-01 12:25 47.94280 16.72116 3730 ft 254 kts 261°
2026-05-01 12:25 47.94431 16.69645 3509 ft 229 kts 295°
2026-05-01 12:26 47.95165 16.67661 3331 ft 211 kts 303°
2026-05-01 12:26 47.96803 16.64450 2951 ft 185 kts 328°
2026-05-01 12:26 47.97934 16.63767 2790 ft 165 kts 347°
2026-05-01 12:27 47.98977 16.63376 2619 ft 147 kts 344°
2026-05-01 12:27 48.00836 16.62528 2277 ft 127 kts 347°
2026-05-01 12:28 48.02565 16.61803 1918 ft 129 kts 345°
2026-05-01 12:28 48.03415 16.61442 1752 ft 124 kts 345°
2026-05-01 12:28 48.05041 16.60735 1437 ft 116 kts 345°
2026-05-01 12:29 48.05850 16.60393 1258 ft 121 kts 345°
2026-05-01 12:29 48.06682 16.60059 1104 ft 126 kts 346°
2026-05-01 12:29 48.08357 16.59363 793 ft 128 kts 342°
2026-05-01 12:30 48.09773 16.58749 609 ft 80 kts 345°
2026-05-01 12:30 48.10124 16.58601 610 ft 43 kts 345°
2026-05-01 12:30 48.10383 16.58436 607 ft 39 kts 319°
2026-05-01 12:31 48.10486 16.58181 610 ft 20 kts 305°
2026-05-01 12:31 48.10566 16.58126 607 ft 12 kts 350°
2026-05-01 12:31 48.10655 16.58098 617 ft 15 kts 347°
2026-05-01 12:31 48.10760 16.58054 615 ft 16 kts 345°
2026-05-01 12:32 48.10876 16.58004 610 ft 19 kts 343°
2026-05-01 12:32 48.11122 16.57826 610 ft 22 kts 295°
2026-05-01 12:32 48.11190 16.57616 615 ft 24 kts 297°
2026-05-01 12:33 48.11239 16.57466 611 ft 11 kts 296°
2026-05-01 12:33 48.11274 16.57359 612 ft 11 kts 302°
2026-05-01 12:33 48.11330 16.57343 607 ft 8 kts 25°
2026-05-01 12:33 48.11376 16.57375 607 ft 7 kts 24°
2026-05-01 12:34 48.11414 16.57399 610 ft 4 kts 20°
2026-05-01 12:34 48.11417 16.57399 615 ft 0 kts 356°
2026-05-01 12:34 48.11422 16.57395 612 ft 3 kts 311°
2026-05-01 12:34 48.11439 16.57346 610 ft 12 kts 295°
2026-05-01 12:35 48.11472 16.57241 607 ft 10 kts 295°
2026-05-01 12:35 48.11466 16.57159 616 ft 8 kts 213°
2026-05-01 12:35 48.11428 16.57132 607 ft 0 kts 204°
2026-05-01 12:36 48.11428 16.57131 607 ft 0 kts 205°